QPF
0.00 0.00 0.00 0.00 0.00 0.00 0.00 0.00 0.00 0.00 0.00 0.00 0.00 0.00 0.00 0.00 0.00 0.00 0.00 0.00 0.00 0.00
0.00 0.00 0.00 0.00 0.00 0.00 0.00 0.00 0.00 0.00 0.00 0.00 0.00 0.00 0.00 0.00 0.00 0.00 0.00 0.00 0.00 0.00
0.00 0.00 0.00 0.00 0.00 0.00 0.00 0.00 0.00 0.00 0.00 0.00 0.01 0.01 0.01 0.00 0.00 0.00 0.00 0.00 0.00 0.00
0.00 0.01 0.03 0.02 0.00 0.03 0.07 0.04 0.02 0.00 0.00 0.00 0.02 0.02 0.01 0.01 0.00 0.00 0.00 0.00 0.00 0.00
0.09 0.10 0.10 0.07 0.03 0.05 0.08 0.09 0.05 0.01 0.00 0.01 0.02 0.03 0.02 0.01 0.00 0.00 0.00 0.00 0.00 0.00
0.21 0.21 0.21 0.18 0.11 0.07 0.07 0.09 0.07 0.04 0.02 0.05 0.05 0.04 0.02 0.01 0.00 0.00 0.00 0.00 0.00 0.00
0.11 0.12 0.11 0.12 0.13 0.10 0.08 0.06 0.07 0.10 0.09 0.09 0.09 0.04 0.02 0.01 0.00 0.00 0.00 0.00 0.00 0.00
0.04 0.02 0.01 0.01 0.02 0.04 0.04 0.05 0.08 0.07 0.05 0.03 0.04 0.02 0.01 0.00 0.00 0.00 0.00 0.00 0.00 0.00
0.04 0.04 0.03 0.01 0.01 0.02 0.02 0.04 0.05 0.02 0.02 0.03 0.03 0.02 0.01 0.00 0.00 0.00 0.00 0.00 0.00 0.00
0.01 0.01 0.03 0.02 0.01 0.03 0.04 0.02 0.02 0.02 0.03 0.04 0.03 0.02 0.00 0.00 0.00 0.00 0.00 0.00 0.00 0.00
0.00 0.01 0.02 0.03 0.02 0.02 0.02 0.03 0.05 0.04 0.05 0.05 0.03 0.01 0.00 0.00 0.00 0.00 0.00 0.00 0.00 0.00
0.00 0.00 0.00 0.00 0.00 0.00 0.01 0.01 0.04 0.06 0.04 0.03 0.02 0.01 0.00 0.00 0.00 0.00 0.00 0.00 0.00 0.00
0.00 0.00 0.00 0.00 0.00 0.00 0.00 0.00 0.00 0.02 0.03 0.03 0.01 0.00 0.00 0.00 0.00 0.00 0.00 0.00 0.00 0.00
0.00 0.00 0.00 0.00 0.00 0.00 0.00 0.00 0.00 0.00 0.01 0.01 0.00 0.00 0.00 0.00 0.00 0.00 0.00 0.00 0.00 0.00
MSLP
1010.03 1010.71 1011.08 1011.51 1011.84 1012.39 1013.14 1014.06 1014.74 1015.19 1015.56 1016.15 1016.49 1016.92 1017.31 1017.95 1018.35 1018.81 1019.18 1019.64 1019.94 1020.40
1009.16 1010.31 1010.85 1011.26 1011.82 1012.39 1012.93 1013.68 1014.30 1014.91 1015.49 1015.98 1016.38 1016.70 1017.34 1017.80 1018.26 1018.90 1019.23 1019.29 1019.76 1020.15
1008.54 1009.48 1010.58 1011.16 1011.72 1011.92 1012.53 1013.28 1014.02 1014.72 1015.21 1015.69 1016.40 1016.93 1017.22 1018.03 1018.22 1018.77 1019.44 1019.69 1020.08 1020.37
1008.15 1008.80 1009.80 1010.63 1011.36 1011.82 1012.35 1012.83 1013.52 1014.14 1015.05 1015.41 1016.07 1016.80 1017.33 1017.70 1018.22 1018.75 1019.40 1019.51 1020.05 1020.43
1007.75 1008.81 1009.47 1010.16 1010.99 1011.53 1011.84 1012.37 1013.18 1013.99 1014.84 1015.53 1015.97 1016.56 1017.22 1017.65 1018.28 1018.68 1019.18 1019.39 1020.06 1020.39
1008.53 1008.74 1009.59 1010.21 1010.47 1011.22 1011.87 1012.45 1013.09 1013.68 1014.62 1015.22 1016.00 1016.71 1017.47 1017.62 1018.13 1018.57 1018.98 1019.49 1019.89 1020.32
1007.55 1008.40 1010.40 1011.55 1011.99 1011.63 1012.28 1012.82 1013.32 1013.72 1014.49 1015.25 1016.05 1016.72 1017.19 1017.48 1018.17 1018.52 1018.87 1019.06 1019.52 1020.16
1007.86 1008.70 1008.24 1010.34 1011.06 1011.91 1011.76 1012.77 1012.93 1013.70 1014.55 1015.31 1015.73 1016.74 1017.26 1018.17 1018.59 1018.76 1018.87 1019.05 1019.41 1019.97
1008.16 1008.90 1009.13 1009.37 1010.98 1011.74 1012.12 1013.32 1013.12 1013.39 1013.59 1015.00 1015.94 1016.53 1017.03 1017.83 1018.65 1018.76 1019.00 1019.53 1019.80 1020.11
1009.59 1009.80 1010.10 1010.88 1011.81 1012.17 1012.48 1013.80 1013.41 1013.51 1014.25 1015.21 1016.22 1015.99 1017.17 1017.81 1018.65 1018.84 1019.30 1019.57 1020.04 1020.76
1010.15 1010.43 1011.19 1011.81 1012.13 1012.35 1012.64 1013.05 1013.02 1013.99 1014.53 1015.39 1015.95 1016.16 1016.94 1017.73 1018.22 1018.68 1019.24 1019.59 1019.95 1020.63
1011.01 1011.43 1011.83 1012.00 1012.20 1012.50 1012.79 1013.23 1014.01 1014.44 1014.71 1015.15 1015.96 1016.66 1017.12 1017.58 1017.84 1018.47 1019.12 1019.61 1020.18 1020.53
1011.38 1011.74 1011.94 1012.12 1012.50 1012.79 1013.04 1013.51 1014.26 1014.42 1014.82 1015.37 1016.07 1016.53 1016.88 1017.26 1017.91 1018.50 1019.25 1019.67 1020.06 1020.43
1011.99 1012.34 1012.65 1013.08 1013.33 1013.45 1013.68 1014.07 1014.30 1014.53 1014.91 1015.40 1015.99 1016.26 1016.78 1017.07 1017.65 1018.28 1018.92 1019.47 1019.98 1020.45
Thickness
5693 5692 5694 5694 5695 5692 5689 5685 5682 5681 5678 5675 5674 5671 5668 5663 5661 5657 5654 5649 5646 5642
5692 5687 5689 5688 5687 5684 5681 5679 5677 5674 5673 5671 5667 5664 5660 5656 5652 5646 5643 5644 5640 5635
5687 5684 5679 5676 5675 5680 5676 5673 5668 5665 5665 5663 5657 5654 5652 5643 5642 5636 5631 5631 5627 5624
5678 5679 5674 5670 5669 5667 5664 5665 5661 5661 5656 5653 5648 5643 5638 5635 5632 5628 5622 5623 5618 5615
5668 5665 5666 5664 5662 5663 5664 5660 5654 5650 5645 5642 5639 5635 5628 5625 5621 5619 5616 5616 5611 5608
5647 5653 5650 5650 5656 5655 5652 5648 5644 5642 5636 5633 5629 5623 5617 5617 5612 5610 5608 5606 5604 5599
5629 5628 5629 5623 5621 5634 5632 5631 5631 5631 5625 5620 5616 5611 5610 5609 5602 5601 5600 5600 5597 5592
5632 5620 5626 5616 5606 5616 5614 5614 5618 5616 5612 5610 5606 5600 5599 5593 5591 5592 5592 5592 5590 5587
5614 5611 5611 5619 5604 5609 5606 5594 5601 5608 5609 5596 5591 5593 5593 5587 5583 5586 5586 5581 5577 5576
5596 5596 5597 5595 5585 5593 5595 5580 5592 5599 5595 5588 5583 5591 5583 5581 5576 5577 5574 5573 5567 5563
5584 5585 5582 5581 5580 5580 5581 5582 5585 5582 5581 5579 5578 5578 5577 5574 5573 5571 5567 5564 5560 5555
5567 5569 5569 5571 5571 5571 5573 5574 5572 5572 5573 5574 5570 5567 5567 5567 5568 5564 5559 5554 5549 5548
5553 5555 5557 5561 5561 5561 5564 5565 5562 5563 5564 5563 5561 5560 5560 5560 5558 5554 5548 5544 5542 5541
5533 5538 5540 5541 5543 5546 5547 5549 5552 5553 5554 5553 5552 5552 5551 5551 5550 5547 5541 5537 5533 5531